Regional Weather Roundup
Issued by NWS Northern Indiana

Home | Current Version | Previous Version | Graphics & Text | Print | Product List | Glossary On
Versions: 1 2 3 4 5 6 7 8 9 10 11 12 13 14 15 16 17 18 19 20 21 22 23 24 25 26 27 28 29 30 31 32 33 34 35 36 37 38 39 40 41 42 43 44 45 46 47 48 49 50
000
ASUS43 KIWX 011000
RWRIWX

KIWX WEATHER ROUNDUP
NATIONAL WEATHER SERVICE NORTHERN INDIANA
600 AM EDT FRI AUG 01 2014

NOTE: "FAIR" INDICATES FEW OR NO CLOUDS BELOW 12,000 FEET WITH NO
SIGNIFICANT WEATHER AND/OR OBSTRUCTIONS TO VISIBILITY.

* THESE STATIONS ARE NOT UNDER NWS QUALITY CONTROL. THEY ALSO MAY NOT
  REPORT WEATHER SUCH AS PRECIPITATION OR FOG.

INZ001>027-011100-
NORTHERN INDIANA

CITY           SKY/WX    TMP DP  RH WIND       PRES   REMARKS
GARY*          CLEAR     61  59  94 SW3       30.07S FOG
VALPARAISO     CLEAR     60  58  92 SW3       30.08S
SOUTH BEND     CLEAR     63  59  87 CALM      30.08S
GOSHEN         CLEAR     62  59  90 S3        30.08R
ANGOLA*        MOCLDY    59  59 100 CALM      30.08S VSB 3/4
FORT WAYNE     PTCLDY    61  58  90 SW5       30.10R

$$
INZ028>050-011100-
CENTRAL INDIANA

CITY           SKY/WX    TMP DP  RH WIND       PRES   REMARKS
LAFAYETTE      FOG       57  57 100 CALM      30.09R VSB 3/4
KOKOMO*        CLEAR     55  54  94 S3        30.10R
MUNCIE*        CLEAR     58  55  90 CALM      30.10R
INDIANAPOLIS   CLEAR     63  60  90 NW3       30.09S

$$
MIZ043>046-050>051-056>058-064>065-071>073-077>080-011100-
SOUTHWEST LOWER MICHIGAN

CITY           SKY/WX    TMP DP  RH WIND       PRES   REMARKS
BATTLE CREEK   CLEAR     61  57  87 S5        30.07R
BENTON HARBOR  CLEAR     60  59  96 CALM      30.06R FOG
COLDWATER*     CLOUDY    64  62  93 CALM      30.08S
HILLSDALE*     CLOUDY    65  63  94 CALM      30.09R
HOLLAND        CLEAR     62  59  90 CALM      30.05R
GRAND RAPIDS   PTCLDY    61  59  93 SW3       30.05R
KALAMAZOO      CLEAR     60  57  89 SW6       30.07R
STURGIS*       CLEAR     61  59  94 CALM      30.07S FOG
THREE RIVERS*  FAIR      62  61  98 S3        30.07S FOG

$$
OHZ001>008-015>018-024>025-011100-
NORTHWEST OHIO

CITY           SKY/WX    TMP DP  RH WIND       PRES   REMARKS
DEFIANCE       PTCLDY    62  58  86 CALM      30.09S FOG
FINDLAY        CLEAR     60  56  86 S3        30.09R
TOLEDO EXPRESS PTCLDY    59  58  96 CALM      30.08R FOG
TOLEDO METCALF CLEAR     63  59  87 CALM      30.09R
LIMA           CLEAR     61  56  83 S3        30.10R

$$
&&



USA.gov is the U.S. government's official web portal to all federal, state and local government web resources and services.